Location: ???? ????
(31.2831°N, 45.5190°E)
Time: 05:00:56
(UTC+00:00)

MetOp-A - Pass Details

Date: 24 February 2021
Orbit: 819 x 821 km, 98.5° (Epoch: 14 April)

Event Time Altitude Azimuth Distance (km) Brightness Sun altitude
Exits shadow 16:50:59 70° 145° (SE) 872 4.0 -26.1°
Maximum altitude 16:51:36 82° 76° (ENE) 832 4.0 -26.2°
Drops below altitude 10° 16:56:58 10° 350° (N) 2,422 6.7 -27.3°
Sets 16:59:19 0° 349° (N) 3,357 7.5 -27.8°
